Flag for Russia Weather past 2 weeks in Bryansk, Russia

Now
73 °F

Sunny.


Feels Like: 77 °F
Forecast: 59 / 84 °F
Wind: 6 mph from North

Location: Brjansk

Current Time: Jul 3, 2015 at 7:47:09 PM

Latest Report: Jul 3, 2015 at 7:00 PM


Visibility: 10 mi

Pressure: 30.33 "Hg

Humidity: 38%

Dew point: 46 °F

Location of BryanskLocation

Historic Weather in Bryansk — Graph

°F

Bryansk temperature yesterday

Maximum temperature yesterday: 77 °F (at 1:30 PM)
Minimum temperature yesterday: 54 °F (at 5:00 AM)
Average temperature yesterday: 68 °F

Past Weeks' High & Low Weather Summary

 TemperatureHumidityPressure
High82 °F (Jun 25, 1:30 PM)100% (Jun 21, 5:00 AM)30.33 "Hg (Jun 21, 5:00 AM)
Low52 °F (Jun 23, 3:00 AM)34% (Jun 24, 5:00 PM)29.65 "Hg (Jun 27, 5:00 AM)
Average66 °F71%29.94 "Hg
* Reported Jun 19 9:00 AM — Jul 3 6:00 PM, Bryansk, Weather by CustomWeather, © 2015

Note: Actual official high and low records may vary slightly from our data, if they occured in-between our weather recording intervals... More about our weather records

Advertising

Bryansk weather history for previous 24 hours

 ConditionsComfort  
Time TempWeatherWind HumidityBarometerVisibility
6:00 PM
Fri, Jul 3
73 °FSunny.8 mph36%30.33 "Hg10 mi
5:30 PM75 °FSunny.6 mph39%30.33 "Hg10 mi
5:00 PM75 °FSunny.8 mph36%30.33 "Hg10 mi
4:30 PM73 °FPassing clouds.8 mph38%30.33 "HgN/A
4:00 PM75 °FSunny.10 mph34%30.33 "Hg10 mi
3:30 PM75 °FSunny.10 mph36%30.33 "Hg10 mi
3:00 PM73 °FSunny.10 mph41%30.33 "Hg10 mi
2:30 PM73 °FSunny.13 mph38%30.33 "Hg10 mi
2:00 PM73 °FSunny.10 mph38%30.33 "Hg10 mi
1:30 PM72 °FPassing clouds.8 mph41%30.33 "HgN/A
1:00 PM72 °FPassing clouds.10 mph41%30.33 "HgN/A
12:30 PM72 °FPassing clouds.10 mph44%30.33 "HgN/A
12:00 PM72 °FPassing clouds.13 mph38%30.33 "HgN/A
11:30 AM70 °FScattered clouds.13 mph53%30.33 "HgN/A
11:00 AM70 °FPartly sunny.13 mph57%30.33 "HgN/A
10:30 AM68 °FPartly sunny.10 mph64%30.33 "HgN/A
10:00 AM66 °FPartly sunny.10 mph64%30.30 "HgN/A
9:30 AM68 °FScattered clouds.10 mph69%30.30 "HgN/A
9:00 AM66 °FPassing clouds.8 mph73%30.30 "HgN/A
8:30 AM64 °FPassing clouds.8 mph78%30.30 "HgN/A
8:00 AM64 °FSunny.8 mph78%30.30 "Hg10 mi
7:30 AM63 °FSunny.8 mph77%30.30 "Hg10 mi
7:00 AM61 °FSunny.8 mph83%30.27 "Hg10 mi
6:00 AM57 °FSunny.8 mph94%30.27 "Hg10 mi
5:00 AM55 °FClear.8 mph94%30.27 "Hg10 mi
4:00 AM55 °FClear.8 mph94%30.24 "Hg10 mi
3:00 AM57 °FClear.8 mph94%30.24 "Hg10 mi
2:00 AM57 °FClear.6 mph94%30.24 "Hg10 mi
1:00 AM59 °FClear.8 mph94%30.24 "Hg10 mi
12:00 AM61 °FClear.8 mph88%30.21 "Hg10 mi
11:00 PM
Thu, Jul 2
61 °FClear.6 mph83%30.21 "Hg10 mi
10:00 PM63 °FScattered clouds.6 mph77%30.21 "HgN/A
9:00 PM66 °FScattered clouds.6 mph68%30.18 "HgN/A
8:00 PM72 °FPartly sunny.3 mph69%30.15 "HgN/A
7:00 PM72 °FScattered clouds.6 mph65%30.15 "HgN/A
Weather by CustomWeather, © 2015

See weather overviewHow to use our weather pages